Location: Arbon
(43.0005°N, 0.7472°E)
Time: 11:12:25
(UTC+00:00)

SL-4 R/B - Visible Passes

Search period start: 04 October 2022 00:00
Search period end: 14 October 2022 00:00
Orbit: 425 x 650 km, 51.6° (Epoch: 03 October)

Date Brightness Start Highest point End Pass type
(mag) Time Alt. Az. Time Alt. Az. Time Alt. Az.
04 Oct 2.4 19:11:43 10° WNW 19:16:13 72° SW 19:17:51 39° SE visible
04 Oct 5.2 20:52:43 10° W 20:53:16 12° WSW 20:53:16 12° WSW visible
05 Oct 2.7 19:02:21 10° WNW 19:06:47 59° SW 19:09:09 27° SSE visible
05 Oct 5.2 20:44:23 10° WSW 20:44:35 10° WSW 20:44:35 10° WSW visible
06 Oct 3.1 18:53:00 10° WNW 18:57:19 48° SW 19:00:34 18° SSE visible
07 Oct 3.5 18:43:40 10° WNW 18:47:50 39° SW 18:52:09 10° SSE visible
08 Oct 3.9 18:34:21 10° WNW 18:38:18 31° SW 18:42:24 10° SSE visible
09 Oct 4.3 18:25:06 10° WNW 18:28:45 25° SW 18:32:32 10° S visible
10 Oct 4.7 18:15:54 10° W 18:19:10 20° SW 18:22:32 10° S visible
11 Oct 5.0 18:06:50 10° W 18:09:34 16° SW 18:12:21 10° SSW visible
12 Oct 5.3 17:58:02 10° WSW 17:59:56 12° SW 18:01:50 10° SSW visible
